Observations for Trim Patrick St
| Time | AQI | Temp °C | Hum % | Pres Pa | CO μg/m³ | H₂S μg/m³ | NO μg/m³ | NO₂ μg/m³ | O₃ μg/m³ | SO₂ μg/m³ | PM1 μg/m³ | PM2.5 μg/m³ | PM10 μg/m³ |
|---|---|---|---|---|---|---|---|---|---|---|---|---|---|
| Monday 3 August 2026 | |||||||||||||
| 06:53 | 1 | 16.6 | 76 | 38,460 | 0.21 | 0 | 1.82 | 13.71 | 38.37 | 0 | 4.57 | 8.32 | 9.15 |
| 06:52 | 1 | 16.6 | 76 | 38,460 | 0.2 | 0 | 1.81 | 10.73 | 40.35 | 0 | 4.57 | 7.59 | 8.35 |
| 06:51 | 1 | 16.5 | 76 | 38,460 | 0.21 | 0 | 1.72 | 12.86 | 44.86 | 0 | 3.71 | 6.87 | 7.56 |
| 06:50 | 1 | 16.5 | 77 | 38,460 | 0.22 | 0 | 1.79 | 13.52 | 43.26 | 0 | 6.29 | 10.39 | 11.43 |
| 06:49 | 1 | 16.5 | 77 | 38,460 | 0.2 | 0 | 1.99 | 13.28 | 41.46 | 0 | 4.57 | 8.97 | 9.87 |
| 06:48 | 1 | 16.4 | 77 | 38,460 | 0.21 | 0 | 1.85 | 11.41 | 40.91 | 0 | 3.71 | 6.84 | 7.53 |
| 06:47 | 1 | 16.4 | 77 | 38,460 | 0.22 | 0 | 1.97 | 12.32 | 42.12 | 0 | 3.71 | 6.84 | 7.52 |
| 06:46 | 1 | 16.4 | 77 | 38,460 | 0.2 | 0 | 2.01 | 13.15 | 37.02 | 0 | 4.57 | 8.23 | 9.06 |
| 06:45 | 1 | 16.4 | 77 | 38,460 | 0.21 | 0 | 2.01 | 9.91 | 43.24 | 0 | 4.57 | 9.63 | 10.59 |
| 06:44 | 1 | 16.3 | 77 | 38,460 | 0.22 | 0 | 1.84 | 14 | 39.62 | 0 | 3.71 | 7.54 | 8.29 |
| 06:42 | 1 | 16.3 | 77 | 38,460 | 0.21 | 0 | 1.85 | 15.69 | 46.47 | 0 | 3.71 | 7.51 | 8.26 |
| 06:41 | 1 | 16.3 | 78 | 38,460 | 0.22 | 0 | 1.81 | 15.6 | 34.6 | 0 | 6.29 | 8.87 | 9.76 |
| 06:40 | 1 | 16.3 | 78 | 38,460 | 0.21 | 0 | 1.85 | 13.36 | 42.59 | 0 | 3.71 | 7.46 | 8.2 |
| 06:39 | 1 | 16.3 | 78 | 38,460 | 0.22 | 0 | 1.99 | 14.94 | 38.77 | 0 | 5.43 | 9.56 | 10.52 |
| 06:38 | 1 | 16.2 | 78 | 38,460 | 0.23 | 0 | 1.87 | 18.26 | 38.07 | 0 | 5.43 | 9.54 | 10.49 |
| 06:37 | 1 | 16.2 | 79 | 38,460 | 0.22 | 0 | 1.96 | 12.54 | 39.45 | 0 | 2 | 6.7 | 7.37 |
| 06:36 | 1 | 16.2 | 79 | 38,460 | 0.24 | 0 | 1.94 | 19.56 | 41.98 | 0 | 4.57 | 8.81 | 9.69 |
| 06:35 | 1 | 16.2 | 79 | 38,460 | 0.22 | 0 | 1.99 | 21.72 | 37 | 0 | 5.43 | 10.2 | 11.22 |
| 06:34 | 1 | 16.2 | 79 | 38,460 | 0.22 | 0 | 1.92 | 13.66 | 43.07 | 0 | 5.43 | 9.47 | 10.41 |
| 06:33 | 1 | 16.1 | 79 | 38,460 | 0.23 | 0 | 2 | 20.67 | 36.86 | 0 | 4.57 | 8.08 | 8.89 |